Pascagoula, MS

8:21 PM CDT on April 21, 2018 (GMT -0500)
Lott International

Weather History for KPQL - March, 2013

Change the Weather History Date:

Monday, March 25, 2013

  Actual Average Record
Temperature  
Mean Temperature 48 °F -  
Max Temperature 61 °F 70 °F 83 °F (1991)
Min Temperature 37 °F 51 °F 30 °F (2006)
Degree Days  
Heating Degree Days 16    
Moisture  
Dew Point 25 °F    
Average Humidity 44    
Maximum Humidity 68    
Minimum Humidity 19    
Precipitation  
Precipitation 0.00 in - - ()
Sea Level Pressure  
Sea Level Pressure 30.11 in    
Wind  
Wind Speed 10 mph (NNW)    
Max Wind Speed 16 mph    
Max Gust Speed 28 mph    
Visibility 10 miles    
Events      
Averages and records for this station are not official NWS values.
T = Trace of Precipitation, MM = Missing Value Source: NWS Daily Summary

Daily Weather History Graph

Daily Weather History Graph

Search for Another Location

Airport or City:

Astronomy

Mar. 25, 2013 Rise Set
Actual Time 6:51 AM CDT 7:08 PM CDT
Civil Twilight 6:27 AM CDT 7:32 PM CDT
Nautical Twilight 5:59 AM CDT 8:01 PM CDT
Astronomical Twilight 5:30 AM CDT 8:29 PM CDT
Moon 5:43 PM CDT (3/25) 5:28 AM CDT (3/25)
Length of Visible Light 13h 05m
Length of Day
12h 17m
Waxing Gibbous, 96% of the Moon is Illuminated
Mar 25
Waxing Gibbous
Mar 27
Full
Apr 2
Last Quarter
Apr 10
New
Apr 18
First Quarter

Hourly Weather History & Observations

Time (CDT) Temp. Windchill Dew Point Humidity Pressure Visibility Wind Dir Wind Speed Gust Speed Precip Events Conditions
12:53 AM 46.9 °F - 30.0 °F 52% 29.98 in 10.0 mi NNW 16.1 mph 21.9 mph N/A   Clear
1:53 AM 46.0 °F 43.1 °F 30.0 °F 54% 30.01 in 10.0 mi NW 5.8 mph - N/A   Clear
2:53 AM 44.1 °F 37.7 °F 30.0 °F 58% 30.02 in 10.0 mi NW 12.7 mph 18.4 mph N/A   Clear
3:53 AM 42.1 °F 35.2 °F 27.0 °F 55% 30.03 in 10.0 mi NNW 12.7 mph 21.9 mph N/A   Clear
4:53 AM 41.0 °F 35.2 °F 27.0 °F 57% 30.04 in 10.0 mi NNW 9.2 mph 17.3 mph N/A   Clear
5:53 AM 39.0 °F 34.0 °F 28.0 °F 65% 30.06 in 10.0 mi NW 6.9 mph - N/A   Clear
6:53 AM 37.9 °F 33.5 °F 28.0 °F 68% 30.09 in 10.0 mi NW 5.8 mph - N/A   Clear
7:53 AM 39.9 °F 35.1 °F 28.9 °F 65% 30.13 in 10.0 mi Variable 6.9 mph - N/A   Clear
8:53 AM 43.0 °F 37.2 °F 28.0 °F 56% 30.14 in 10.0 mi NNW 10.4 mph 18.4 mph N/A   Clear
9:53 AM 46.0 °F 43.1 °F 28.0 °F 50% 30.15 in 10.0 mi NNW 5.8 mph - N/A   Clear
10:53 AM 50.0 °F - 27.0 °F 41% 30.14 in 10.0 mi NW 8.1 mph 18.4 mph N/A   Clear
11:53 AM 53.1 °F - 24.1 °F 32% 30.16 in 10.0 mi NW 8.1 mph 20.7 mph N/A   Clear
12:53 PM 57.0 °F - 19.9 °F 24% 30.12 in 10.0 mi NNW 15.0 mph 24.2 mph 0.00 in   Clear
1:53 PM 57.9 °F - 19.0 °F 22% 30.10 in 10.0 mi NW 16.1 mph 27.6 mph N/A   Clear
2:53 PM 60.1 °F - 19.0 °F 20% 30.08 in 10.0 mi NNW 13.8 mph 23.0 mph N/A   Clear
3:53 PM 60.1 °F - 17.1 °F 19% 30.06 in 10.0 mi NNW 16.1 mph 25.3 mph N/A   Clear
4:53 PM 60.1 °F - 17.1 °F 19% 30.06 in 10.0 mi NNW 11.5 mph 21.9 mph N/A   Clear
5:53 PM 57.9 °F - 17.1 °F 20% 30.08 in 10.0 mi NNW 10.4 mph 21.9 mph N/A   Clear
6:53 PM 55.0 °F - 17.1 °F 23% 30.11 in 10.0 mi NW 11.5 mph 19.6 mph N/A   Clear
7:53 PM 51.1 °F - 21.0 °F 31% 30.15 in 10.0 mi NW 9.2 mph - N/A   Clear
8:53 PM 48.9 °F - 23.0 °F 36% 30.19 in 10.0 mi NNW 4.6 mph - N/A   Clear
9:53 PM 42.1 °F - 28.9 °F 60% 30.22 in 10.0 mi Calm Calm - N/A   Clear
10:53 PM 41.0 °F 39.0 °F 28.0 °F 60% 30.24 in 10.0 mi North 3.5 mph - N/A   Clear
11:53 PM 39.9 °F - 28.9 °F 65% 30.24 in 10.0 mi Calm Calm - N/A   Clear